Location: Pensacola
(30.4142°N, 87.2155°W)
Time: 10:58:39
(UTC-05:00)

UKube-1 - Visible Passes

Search period start: 31 May 2023 00:00
Search period end: 10 June 2023 00:00
Orbit: 602 x 605 km, 98.3° (Epoch: 31 May)

Date Brightness Start Highest point End Pass type
(mag) Time Alt. Az. Time Alt. Az. Time Alt. Az.
31 May ? 23:58:28 10° NNE 23:58:48 12° NNE 23:58:48 12° NNE visible
02 Jun ? 00:10:36 10° NNE 00:11:10 14° NNE 00:11:10 14° NNE visible
03 Jun ? 00:22:48 10° N 00:23:31 15° N 00:23:31 15° N visible
04 Jun ? 00:35:06 10° N 00:35:51 15° N 00:35:51 15° N visible
05 Jun ? 00:47:29 10° N 00:48:11 14° NNW 00:48:11 14° NNW visible
06 Jun ? 01:00:00 10° NNW 01:00:30 12° NNW 01:00:30 12° NNW visible
07 Jun ? 01:12:42 10° NNW 01:12:49 10° NNW 01:12:49 10° NNW visible
07 Jun ? 23:48:03 10° NNE 23:48:18 11° NNE 23:48:18 11° NNE visible
09 Jun ? 00:00:02 10° NNE 00:00:36 14° NNE 00:00:36 14° NNE visible
